Hourly Data Report for May 20, 2012

All times are specified in Local Standard Time (LST). Add 1 hour to adjust for Daylight Saving Time where and when it is observed.

ST. JOHN'S INTL A
NEWFOUNDLAND

47°37'07.000" N
52°45'09.000" W
140.50 m
8403505
71801
YYT

Download Data

Hourly Data (May 2012)
Hourly Data Report for May 20, 2012
Temp Definition
°C
Dew Point Temp Definition
°C
Rel Hum Definition
%
Wind Dir Definition
10's deg

Wind Spd Definition
km/h
Visibility Definition
km
Stn Press Definition
kPa
Hmdx Definition


Wind Chill Definition


Weather Definition


TIME
00:30 Legend Double Dagger 5.7 1.1 72 28 27 10.0 99.70     LegendNANA
01:30 Legend Double Dagger 4.8 1.1 77 28 21 10.0 99.75     LegendNANA
02:30 Legend Double Dagger 5.2 0.6 72 30 20 10.0 99.76     Mainly Clear
03:30 Legend Double Dagger 5.2 0.6 72 30 26 10.0 99.78     LegendNANA
04:30 Legend Double Dagger 4.8 0.4 73 30 18 10.0 99.88     LegendNANA
05:30 Legend Double Dagger 5.6 1.2 73 30 21 10.0 99.93     Mainly Clear
06:30 Legend Double Dagger 6.5 0.8 67 31 29 10.0 99.97     LegendNANA
07:30 Legend Double Dagger 8.2 1.8 64 32 22 10.0 100.03     LegendNANA
08:30 Legend Double Dagger 7.8 0.5 60 34 24 10.0 100.08     Mostly Cloudy
09:30 Legend Double Dagger 8.6 1.3 60 33 20 10.0 100.14     LegendNANA
10:30 Legend Double Dagger 9.1 1.1 57 33 22 10.0 100.18     LegendNANA
11:30 Legend Double Dagger 8.1 1.5 63 35 18 10.0 100.21     Mainly Clear
12:30 Legend Double Dagger 8.2 1.8 64 1 17 10.0 100.26     LegendNANA
13:30 Legend Double Dagger 6.5 1.6 71 3 20 10.0 100.33     LegendNANA
14:30 Legend Double Dagger 7.2 1.9 69 4 23 10.0 100.39     Mostly Cloudy
15:30 Legend Double Dagger 6.2 1.7 73 1 21 10.0 100.45     LegendNANA
16:30 Legend Double Dagger 5.6 1.5 75 2 20 10.0 100.47     LegendNANA
17:30 Legend Double Dagger 5.2 1.5 77 3 20 10.0 100.53     Mainly Clear
18:30 Legend Double Dagger 4.1 1.1 81 36 21 10.0 100.60     LegendNANA
19:30 Legend Double Dagger 3.6 0.7 81 35 21 10.0 100.66     LegendNANA
20:30 Legend Double Dagger 3.3 0.0 79 36 19 10.0 100.73     Mostly Cloudy
21:30 Legend Double Dagger 2.4 0.1 85 35 12 10.0 100.77     LegendNANA
22:30 Legend Double Dagger 2.8 0.5 85 33 14 10.0 100.78     LegendNANA
23:30 Legend Double Dagger 1.3 -0.5 88 32 11 10.0 100.85     Mainly Clear

Notes on Data Quality.

Legend

  • E = Estimated
  • M = Missing
  • NA = Not Available
  • ‡ = Partner data that is not subject to review by the National Climate Archives
Date modified: